Williamtown, Australia

12:15 AM AEST on May 24, 2017 (GMT +1000)
Williamtown Military

Weather History for YWLM - September, 2013

Change the Weather History Date:

Friday, September 6, 2013

  Actual Average Record
Temperature  
Mean Temperature 66 °F -  
Max Temperature 78 °F - - ()
Min Temperature 53 °F - - ()
Growing Degree Days 16 (Base 50)    
Moisture  
Dew Point 53 °F    
Average Humidity 66    
Maximum Humidity 94    
Minimum Humidity 22    
Precipitation  
Precipitation 0.00 in - - ()
Sea Level Pressure  
Sea Level Pressure 30.25 in    
Wind  
Wind Speed 7 mph ()    
Max Wind Speed 13 mph    
Max Gust Speed -    
Visibility 6.2 miles    
Events      
T = Trace of Precipitation, MM = Missing Value Source: Averaged Metar Reports

Daily Weather History Graph

Daily Weather History Graph

Search for Another Location

Airport or City:

Trip Planner

Search our weather history database for the weather conditions in past years. The results will help you decide how hot, cold, wet, or windy it might be!

Date:

Astronomy

Sep. 06, 2013 Rise Set
Actual Time 6:04 AM AEST 5:38 PM AEST
Civil Twilight 5:39 AM AEST 6:03 PM AEST
Nautical Twilight 5:10 AM AEST 6:31 PM AEST
Astronomical Twilight 4:42 AM AEST 7:00 PM AEST
Moon 6:04 AM AEST (9/6) 6:25 PM AEST (9/6)
Length of Visible Light 12h 23m
Length of Day
11h 34m
New Moon, 0% of the Moon is Illuminated
Sep 6
New Moon
Sep 13
First Quarter
Sep 19
Full
Sep 27
Last Quarter
Oct 5
New

Hourly Weather History & Observations

Time (AEST) Temp. Dew Point Humidity Pressure Visibility Wind Dir Wind Speed Gust Speed Precip Events Conditions
12:00 AM 54 °F 50 °F 83% 30.28 in - Calm Calm - -  
12:00 AM 53.6 °F 50.0 °F 88% 30.27 in 6.2 mi Calm Calm - N/A   Unknown
12:30 AM 53.6 °F 50.0 °F 88% 30.27 in 6.2 mi Calm Calm - N/A   Unknown
1:00 AM 58 °F 47 °F 58% 30.27 in - NNW 8.1 mph - -  
1:00 AM 57.2 °F 46.4 °F 67% 30.27 in 6.2 mi NNW 8.1 mph - N/A   Unknown
1:30 AM 57.2 °F 46.4 °F 67% 30.24 in 6.2 mi NW 8.1 mph - N/A   Unknown
2:00 AM 57.2 °F 48.2 °F 72% 30.24 in 6.2 mi NW 6.9 mph - N/A   Unknown
2:30 AM 57.2 °F 46.4 °F 67% 30.24 in 6.2 mi NW 8.1 mph - N/A   Unknown
3:00 AM 60 °F 46 °F 49% 30.26 in - NW 9.2 mph - -  
3:00 AM 59.0 °F 46.4 °F 63% 30.24 in 6.2 mi NW 9.2 mph - N/A   Unknown
3:30 AM 60.8 °F 46.4 °F 59% 30.24 in 6.2 mi NW 9.2 mph - N/A   Unknown
4:00 AM 60 °F 45 °F 48% 30.25 in - NW 9.2 mph - -  
4:00 AM 60.8 °F 44.6 °F 55% 30.24 in 6.2 mi NW 9.2 mph - N/A   Unknown
4:30 AM 59.0 °F 44.6 °F 59% 30.24 in 6.2 mi NW 10.4 mph - N/A   Unknown
5:00 AM 59.0 °F 46.4 °F 63% 30.24 in 6.2 mi WNW 10.4 mph - N/A   Unknown
5:30 AM 59.0 °F 44.6 °F 59% 30.24 in 6.2 mi NW 10.4 mph - N/A   Unknown
6:00 AM 56 °F 46 °F 60% 30.28 in - NW 6.9 mph - -  
6:00 AM 55.4 °F 46.4 °F 72% 30.27 in - NW 6.9 mph - N/A   Clear
6:30 AM 57.2 °F 46.4 °F 67% 30.27 in - NW 8.1 mph - N/A   Clear
7:00 AM 59 °F 46 °F 53% 30.30 in - WNW 9.2 mph - -  
7:00 AM 59.0 °F 46.4 °F 63% 30.27 in - WNW 9.2 mph - N/A   Clear
7:30 AM 64.4 °F 44.6 °F 49% 30.30 in - NW 11.5 mph - N/A   Clear
8:00 AM 64.4 °F 46.4 °F 52% 30.30 in - WNW 10.4 mph - N/A   Clear
8:30 AM 68.0 °F 44.6 °F 43% 30.30 in - WNW 12.7 mph - N/A   Clear
9:00 AM 71 °F 46 °F 30% 30.33 in - West 10.4 mph - -  
9:00 AM 71.6 °F 46.4 °F 41% 30.33 in - West 10.4 mph - N/A   Clear
9:30 AM 73.4 °F 44.6 °F 36% 30.30 in - WNW 12.7 mph - N/A   Clear
10:00 AM 77 °F 45 °F 22% 30.32 in - West 12.7 mph - -  
10:00 AM 77.0 °F 44.6 °F 32% 30.30 in - West 12.7 mph - N/A   Clear
10:30 AM 78.8 °F 46.4 °F 32% 30.30 in - WSW 8.1 mph - N/A   Clear
11:00 AM 77.0 °F 46.4 °F 34% 30.30 in - WSW 6.9 mph - N/A   Clear
11:30 AM 77.0 °F 50.0 °F 39% 30.27 in - South 11.5 mph - N/A   Clear
12:00 PM 76 °F 55 °F 38% 30.28 in - SSE 10.4 mph - -  
12:00 PM 75.2 °F 55.4 °F 50% 30.27 in - SSE 10.4 mph - N/A   Clear
12:30 PM 73.4 °F 59.0 °F 61% 30.24 in - South 9.2 mph - N/A   Clear
1:00 PM 75.2 °F 59.0 °F 57% 30.24 in - SSE 11.5 mph - N/A   Clear
1:30 PM 73.4 °F 60.8 °F 65% 30.24 in - SSE 11.5 mph - N/A   Clear
2:00 PM 71.6 °F 62.6 °F 73% 30.21 in - SSE 11.5 mph - N/A   Clear
2:30 PM 69.8 °F 60.8 °F 73% 30.21 in - SE 12.7 mph - N/A   Clear
3:00 PM 70 °F 62 °F 69% 30.23 in - SSE 10.4 mph - -  
3:00 PM 69.8 °F 62.6 °F 78% 30.21 in - SSE 10.4 mph - N/A   Clear
3:30 PM 69.8 °F 62.6 °F 78% 30.21 in - SSE 10.4 mph - N/A   Clear
4:00 PM 68.0 °F 62.6 °F 83% 30.21 in - ESE 9.2 mph - N/A   Clear
4:30 PM 68.0 °F 62.6 °F 83% 30.21 in 6.2 mi SE 8.1 mph - N/A   Unknown
5:00 PM 68.0 °F 62.6 °F 83% 30.21 in 6.2 mi East 6.9 mph - N/A   Unknown
5:30 PM 68.0 °F 64.4 °F 88% 30.21 in 6.2 mi ENE 6.9 mph - N/A   Unknown
6:00 PM 67 °F 64 °F 87% 30.23 in - ENE 5.8 mph - -  
6:00 PM 66.2 °F 64.4 °F 94% 30.21 in 6.2 mi ENE 5.8 mph - N/A   Unknown
6:30 PM 66.2 °F 64.4 °F 94% 30.21 in 6.2 mi ENE 6.9 mph - N/A   Unknown
7:00 PM 67 °F 63 °F 83% 30.24 in - ENE 8.1 mph - -  
7:00 PM 66.2 °F 62.6 °F 88% 30.21 in 6.2 mi ENE 8.1 mph - N/A   Unknown
7:30 PM 66.2 °F 60.8 °F 83% 30.24 in 6.2 mi NE 4.6 mph - N/A   Unknown
8:00 PM 64.4 °F 60.8 °F 88% 30.24 in 6.2 mi Calm Calm - N/A   Unknown
8:30 PM 62.6 °F 60.8 °F 94% 30.24 in 6.2 mi NNE 4.6 mph - N/A   Unknown
9:00 PM 64 °F 59 °F 78% 30.25 in - NNE 6.9 mph - -  
9:00 PM 64.4 °F 59.0 °F 83% 30.24 in 6.2 mi NNE 6.9 mph - N/A   Unknown
9:30 PM 64.4 °F 57.2 °F 77% 30.21 in 6.2 mi North 4.6 mph - N/A   Unknown
10:00 PM 64 °F 57 °F 71% 30.23 in - NNE 4.6 mph - -  
10:00 PM 64.4 °F 57.2 °F 77% 30.21 in 6.2 mi NNE 4.6 mph - N/A   Unknown
10:30 PM 60.8 °F 55.4 °F 82% 30.21 in 6.2 mi NNW 3.5 mph - N/A   Unknown
11:00 PM 60.8 °F 55.4 °F 82% 30.21 in 6.2 mi Calm Calm - N/A   Unknown
11:30 PM 57.2 °F 55.4 °F 94% 30.21 in 6.2 mi South 4.6 mph - N/A   Unknown